Change the Weather History Date:

Monday, August 25, 2014

  Actual Average Record
Temperature  
Mean Temperature 65 °F 72 °F  
Max Temperature 70 °F 83 °F 103 °F (1955)
Min Temperature 59 °F 60 °F 42 °F (1934)
Degree Days  
Heating Degree Days 0 1  
Month to date heating degree days 0 2  
Since 1 June heating degree days 37 36  
Since 1 July heating degree days 12 6  
Cooling Degree Days 0 7  
Month to date cooling degree days 206 217  
Year to date cooling degree days 693 778  
Since 1 June cooling degree days 596 717  
Growing Degree Days 14 (Base 50)    
Moisture  
Dew Point 56 °F    
Average Humidity 77    
Maximum Humidity 90    
Minimum Humidity 63    
Precipitation  
Precipitation T in 0.10 in 1.86 in (1902)
Month to date precipitation 4.23 2.69  
Year to date precipitation 22.24 19.97  
Snow  
Snow 0.00 in 0.00 in - ()
Month to date snowfall 0.0 0.0  
Since 1 July snowfall 0.0 0.0  
Snow Depth 0.00 in    
Sea Level Pressure  
Sea Level Pressure 30.03 in    
Wind  
Wind Speed 6 mph (NNE)    
Max Wind Speed 21 mph    
Max Gust Speed 25 mph    
Visibility 10 miles    
Events Rain , Thunderstorm    
T = Trace of Precipitation, MM = Missing Value Source: NWS Daily Summary

Daily Weather History Graph

Daily Weather History Graph

Search for Another Location

Airport or City:

Trip Planner

Search our weather history database for the weather conditions in past years. The results will help you decide how hot, cold, wet, or windy it might be!

Date:

Astronomy

Aug. 25, 2014 Rise Set
Actual Time 6:48 AM CDT 8:14 PM CDT
Civil Twilight 6:18 AM CDT 8:43 PM CDT
Nautical Twilight 5:43 AM CDT 9:18 PM CDT
Astronomical Twilight 5:06 AM CDT 9:56 PM CDT
Moon 6:55 AM CDT (8/25) 8:04 PM CDT (8/25)
Length of Visible Light 14h 24m
Length of Day
13h 26m
New Moon, 0% of the Moon is Illuminated
Aug 25
New Moon
Sep 2
First Quarter
Sep 8
Full
Sep 15
Last Quarter
Sep 24
New

Hourly Weather History & Observations

Time (CDT) Temp. Dew Point Humidity Pressure Visibility Wind Dir Wind Speed Gust Speed Precip Events Conditions
12:56 AM 64.0 °F 60.1 °F 87% 29.90 in 10.0 mi WSW 3.5 mph - N/A   Clear
1:56 AM 62.1 °F 59.0 °F 90% 29.90 in 10.0 mi Calm Calm - N/A   Clear
2:56 AM 60.1 °F 57.0 °F 90% 29.90 in 10.0 mi SE 3.5 mph - N/A   Clear
3:56 AM 60.1 °F 57.0 °F 90% 29.89 in 10.0 mi Calm Calm - N/A   Clear
4:56 AM 60.1 °F 57.9 °F 93% 29.93 in 10.0 mi West 5.8 mph - N/A   Clear
5:56 AM 63.0 °F 59.0 °F 87% 29.94 in 10.0 mi NNW 15.0 mph - N/A   Clear
6:56 AM 60.1 °F 52.0 °F 75% 29.99 in 10.0 mi NNW 13.8 mph - N/A   Clear
7:56 AM 62.1 °F 51.1 °F 67% 30.07 in 10.0 mi NW 8.1 mph - N/A   Clear
8:56 AM 62.1 °F 50.0 °F 65% 30.08 in 10.0 mi NNW 8.1 mph - N/A   Clear
9:56 AM 62.1 °F 50.0 °F 65% 30.12 in 10.0 mi WNW 9.2 mph - N/A   Clear
11:56 AM 64.9 °F 51.1 °F 61% 30.01 in 10.0 mi North 18.4 mph - N/A   Clear
12:56 PM 64.9 °F 52.0 °F 63% 30.04 in 10.0 mi North 10.4 mph - N/A   Clear
1:27 PM 68.0 °F 53.1 °F 59% 30.06 in 10.0 mi North 11.5 mph - N/A Thunderstorm Scattered Clouds
1:42 PM 66.0 °F 52.0 °F 60% 30.07 in 10.0 mi North 10.4 mph - N/A   Mostly Cloudy
1:56 PM 66.0 °F 53.1 °F 63% 30.07 in 10.0 mi North 5.8 mph - N/A   Overcast
2:06 PM 66.0 °F 54.0 °F 65% 30.08 in 10.0 mi NE 6.9 mph - N/A Thunderstorm Mostly Cloudy
2:21 PM 66.9 °F 54.0 °F 63% 30.08 in 10.0 mi ENE 8.1 mph - N/A   Overcast
2:38 PM 68.0 °F 54.0 °F 61% 30.08 in 10.0 mi NNE 9.2 mph - N/A Thunderstorm Overcast
2:56 PM 66.9 °F 55.0 °F 66% 30.09 in 10.0 mi SSE 3.5 mph - N/A Thunderstorm Mostly Cloudy
3:32 PM 64.9 °F 57.0 °F 75% 30.10 in 10.0 mi SSE 9.2 mph - 0.00 in Rain , Thunderstorm Light Thunderstorms and Rain
3:49 PM 64.9 °F 57.0 °F 75% 30.07 in 10.0 mi East 4.6 mph - 0.00 in Thunderstorm Overcast
3:56 PM 66.0 °F 57.0 °F 73% 30.06 in 10.0 mi SE 6.9 mph - 0.00 in Thunderstorm Mostly Cloudy
4:10 PM 66.0 °F 57.9 °F 75% 30.07 in 10.0 mi SSE 8.1 mph - N/A   Mostly Cloudy
4:56 PM 66.9 °F 57.9 °F 73% 30.07 in 10.0 mi SSE 6.9 mph - N/A   Scattered Clouds
5:56 PM 70.0 °F 57.9 °F 65% 30.06 in 10.0 mi NE 4.6 mph - N/A   Scattered Clouds
6:56 PM 69.1 °F 59.0 °F 70% 30.05 in 10.0 mi Calm Calm - N/A   Overcast
7:56 PM 68.0 °F 61.0 °F 78% 30.05 in 10.0 mi Calm Calm - N/A   Mostly Cloudy
8:56 PM 66.9 °F 62.1 °F 84% 30.08 in 10.0 mi Calm Calm - N/A   Overcast
9:56 PM 66.9 °F 61.0 °F 81% 30.09 in 10.0 mi Calm Calm - N/A   Overcast
10:56 PM 66.9 °F 62.1 °F 84% 30.09 in 10.0 mi Calm Calm - N/A   Overcast
11:56 PM 66.9 °F 62.1 °F 84% 30.08 in 10.0 mi North 3.5 mph - N/A   Overcast